Hill City, KS

2:50 AM CDT on August 31, 2016 (GMT -0500)
Hill City Municipal

Weather History for KHLC - September, 2013

Change the Weather History Date:

Monday, September 9, 2013

  Actual Average Record
Temperature  
Mean Temperature 85 °F 70 °F  
Max Temperature 97 °F 85 °F 102 °F (1955)
Min Temperature 73 °F 56 °F 37 °F (1943)
Cooling Degree Days 20    
Growing Degree Days 34 (Base 50)    
Moisture  
Dew Point 54 °F    
Average Humidity 36    
Maximum Humidity 51    
Minimum Humidity 21    
Precipitation  
Precipitation 0.00 in 0.06 in 1.90 in (2006)
Month to date precipitation 0.00 0.68  
Year to date precipitation 12.94 18.56  
Sea Level Pressure  
Sea Level Pressure 29.76 in    
Wind  
Wind Speed 12 mph (SSW)    
Max Wind Speed 20 mph    
Max Gust Speed 32 mph    
Visibility 10 miles    
Events      
T = Trace of Precipitation, MM = Missing Value Source: NWS Daily Summary

Daily Weather History Graph

Daily Weather History Graph

Search for Another Location

Airport or City:

Trip Planner

Search our weather history database for the weather conditions in past years. The results will help you decide how hot, cold, wet, or windy it might be!

Date:

Astronomy

Sep. 09, 2013 Rise Set
Actual Time 7:15 AM CDT 7:57 PM CDT
Civil Twilight 6:48 AM CDT 8:24 PM CDT
Nautical Twilight 6:16 AM CDT 8:56 PM CDT
Astronomical Twilight 5:43 AM CDT 9:28 PM CDT
Moon 11:37 AM CDT (9/9) 10:16 PM CDT (9/9)
Length of Visible Light 13h 35m
Length of Day
12h 41m
Waxing Crescent, 19% of the Moon is Illuminated
Sep 9
Waxing Crescent
Sep 12
First Quarter
Sep 19
Full
Sep 26
Last Quarter
Oct 4
New

Hourly Weather History & Observations

Time (CDT) Temp. Heat Index Dew Point Humidity Pressure Visibility Wind Dir Wind Speed Gust Speed Precip Events Conditions
12:53 AM 82.0 °F 81.6 °F 55.9 °F 41% 29.78 in 10.0 mi SSW 10.4 mph 18.4 mph N/A   Clear
1:53 AM 81.0 °F 80.7 °F 55.0 °F 41% 29.77 in 10.0 mi SSW 15.0 mph 23.0 mph N/A   Clear
2:53 AM 79.0 °F - 54.0 °F 42% 29.78 in 10.0 mi SSW 10.4 mph - N/A   Clear
3:53 AM 77.0 °F - 54.0 °F 45% 29.78 in 10.0 mi SSW 10.4 mph - N/A   Clear
4:53 AM 73.9 °F - 54.0 °F 50% 29.77 in 10.0 mi SSW 9.2 mph - N/A   Clear
5:53 AM 73.9 °F - 53.1 °F 48% 29.77 in 10.0 mi SSW 11.5 mph - N/A   Clear
6:53 AM 73.0 °F - 54.0 °F 51% 29.78 in 10.0 mi SSW 10.4 mph - N/A   Clear
7:53 AM 73.0 °F - 54.0 °F 51% 29.80 in 10.0 mi WSW 6.9 mph - N/A   Clear
8:53 AM 77.0 °F - 55.9 °F 48% 29.80 in 10.0 mi WSW 6.9 mph - N/A   Clear
9:53 AM 84.0 °F 83.3 °F 57.0 °F 40% 29.80 in 10.0 mi SW 5.8 mph 17.3 mph N/A   Clear
10:53 AM 89.1 °F 87.7 °F 57.0 °F 34% 29.79 in 10.0 mi SSW 15.0 mph 21.9 mph N/A   Clear
11:53 AM 91.9 °F 90.3 °F 55.9 °F 30% 29.79 in 10.0 mi SSW 16.1 mph 23.0 mph N/A   Clear
12:53 PM 95.0 °F - 48.9 °F 21% 29.76 in 10.0 mi SSW 15.0 mph 32.2 mph N/A   Clear
1:53 PM 96.1 °F - 51.1 °F 22% 29.75 in 10.0 mi South 19.6 mph 28.8 mph N/A   Clear
2:53 PM 96.1 °F - 52.0 °F 22% 29.73 in 10.0 mi SSW 17.3 mph 26.5 mph N/A   Clear
3:53 PM 96.1 °F - 52.0 °F 22% 29.72 in 10.0 mi South 16.1 mph 27.6 mph N/A   Partly Cloudy
4:53 PM 95.0 °F - 52.0 °F 23% 29.71 in 10.0 mi SSW 18.4 mph 25.3 mph N/A   Partly Cloudy
5:53 PM 95.0 °F - 52.0 °F 23% 29.71 in 10.0 mi South 15.0 mph 23.0 mph N/A   Clear
6:53 PM 93.0 °F - 52.0 °F 25% 29.71 in 10.0 mi South 15.0 mph 25.3 mph N/A   Clear
7:53 PM 90.0 °F - 52.0 °F 27% 29.72 in 10.0 mi South 13.8 mph 20.7 mph N/A   Clear
8:53 PM 87.1 °F 85.1 °F 54.0 °F 32% 29.74 in 10.0 mi South 15.0 mph 24.2 mph N/A   Clear
9:53 PM 84.9 °F 83.3 °F 54.0 °F 34% 29.76 in 10.0 mi South 13.8 mph 21.9 mph N/A   Clear
10:53 PM 82.9 °F 82.1 °F 55.9 °F 39% 29.78 in 10.0 mi South 15.0 mph 26.5 mph N/A   Clear
11:53 PM 81.0 °F 80.8 °F 55.9 °F 42% 29.78 in 10.0 mi South 15.0 mph 21.9 mph N/A   Clear